| time (UTC) | temp C | wind direction | speed KPH | gust KPH | rain 1hr cm | rain 24hr cm | rain mn cm | humidity % | barometer mb |
| 20260503220554 | 18 | 200 | 1.6 | 6.4 | 0.00 | 0.00 | 0.00 | 28 | 1011.3 |
| 20260503220049 | 18 | 8 | 0.0 | 1.6 | 0.00 | 0.00 | 0.00 | 28 | 1011.4 |
| 20260503220029 | 18 | 164 | 0.0 | 6.4 | 0.00 | 0.00 | 0.00 | 30 | 1011.4 |
| 20260503215304 | 18 | 169 | 1.6 | 9.7 | 0.00 | 0.00 | 0.00 | 28 | 1011.4 |
| 20260503214731 | 20 | 231 | 1.6 | 9.7 | 0.00 | 0.00 | 0.00 | 27 | 1011.5 |
| 20260503214618 | 19 | 207 | 1.6 | 9.7 | 0.00 | 0.00 | 0.00 | 27 | 1011.4 |
| 20260503213519 | 20 | 118 | 1.6 | 9.7 | 0.00 | 0.00 | 0.00 | 27 | 1011.4 |
| 20260503213013 | 20 | 219 | 0.0 | 3.2 | 0.00 | 0.00 | 0.00 | 27 | 1011.3 |
| 20260503212507 | 20 | 204 | 1.6 | 3.2 | 0.00 | 0.00 | 0.00 | 27 | 1011.3 |
| 20260503212002 | 20 | 230 | 1.6 | 11.3 | 0.00 | 0.00 | 0.00 | 26 | 1011.3 |
| 20260503211455 | 20 | 18 | 1.6 | 11.3 | 0.00 | 0.00 | 0.00 | 28 | 1011.3 |
| 20260503210949 | 20 | 156 | 1.6 | 11.3 | 0.00 | 0.00 | 0.00 | 27 | 1011.3 |
| 20260503210442 | 20 | 160 | 0.0 | 4.8 | 0.00 | 0.00 | 0.00 | 27 | 1011.2 |
| 20260503205937 | 19 | 208 | 1.6 | 8.0 | 0.00 | 0.00 | 0.00 | 28 | 1011.3 |
| 20260503205430 | 19 | 279 | 1.6 | 8.0 | 0.00 | 0.00 | 0.00 | 28 | 1011.3 |
| 20260503204925 | 19 | 30 | 1.6 | 8.0 | 0.00 | 0.00 | 0.00 | 28 | 1011.4 |
| 20260503204643 | 19 | 191 | 1.6 | 8.0 | 0.00 | 0.00 | 0.00 | 29 | 1011.3 |
| 20260503203913 | 19 | 231 | 1.6 | 9.7 | 0.00 | 0.00 | 0.00 | 29 | 1011.2 |
| 20260503203406 | 19 | 105 | 1.6 | 9.7 | 0.00 | 0.00 | 0.00 | 28 | 1011.2 |
| 20260503203118 | 19 | 151 | 1.6 | 12.9 | 0.00 | 0.00 | 0.00 | 29 | 1011.4 |
| 20260503202355 | 19 | 80 | 1.6 | 12.9 | 0.00 | 0.00 | 0.00 | 29 | 1011.4 |
| 20260503201849 | 19 | 69 | 1.6 | 14.5 | 0.00 | 0.00 | 0.00 | 28 | 1011.5 |
| 20260503201342 | 18 | 34 | 1.6 | 14.5 | 0.00 | 0.00 | 0.00 | 30 | 1011.5 |
| 20260503200837 | 18 | 73 | 1.6 | 8.0 | 0.00 | 0.00 | 0.00 | 30 | 1011.4 |
| 20260503200331 | 19 | 206 | 1.6 | 8.0 | 0.00 | 0.00 | 0.00 | 28 | 1011.7 |
| 20260503195824 | 19 | 25 | 3.2 | 9.7 | 0.00 | 0.00 | 0.00 | 28 | 1011.8 |
| 20260503195319 | 19 | 24 | 3.2 | 9.7 | 0.00 | 0.00 | 0.00 | 28 | 1011.8 |
| 20260503194813 | 19 | 157 | 1.6 | 9.7 | 0.00 | 0.00 | 0.00 | 29 | 1011.8 |
| 20260503194307 | 19 | 48 | 1.6 | 8.0 | 0.00 | 0.00 | 0.00 | 28 | 1011.8 |
| 20260503193801 | 19 | 30 | 1.6 | 8.0 | 0.00 | 0.00 | 0.00 | 29 | 1012.1 |
| 20260503193738 | 19 | 201 | 1.6 | 6.4 | 0.00 | 0.00 | 0.00 | 29 | 1012.1 |
| 20260503192750 | 19 | 155 | 1.6 | 6.4 | 0.00 | 0.00 | 0.00 | 29 | 1012.1 |
| 20260503192243 | 20 | 113 | 1.6 | 4.8 | 0.00 | 0.00 | 0.00 | 28 | 1012.2 |
| 20260503191736 | 19 | 201 | 1.6 | 8.0 | 0.00 | 0.00 | 0.00 | 30 | 1012.2 |
| 20260503191233 | 19 | 5 | 1.6 | 8.0 | 0.00 | 0.00 | 0.00 | 29 | 1012.3 |
| 20260503190734 | 18 | 303 | 1.6 | 9.7 | 0.00 | 0.00 | 0.00 | 32 | 1012.4 |
| 20260503190233 | 18 | 187 | 3.2 | 9.7 | 0.00 | 0.00 | 0.00 | 29 | 1012.5 |
| 20260503185730 | 18 | 86 | 1.6 | 6.4 | 0.00 | 0.00 | 0.00 | 31 | 1012.6 |
| 20260503185230 | 18 | 229 | 1.6 | 8.0 | 0.00 | 0.00 | 0.00 | 32 | 1012.7 |
| 20260503184730 | 17 | 163 | 3.2 | 8.0 | 0.00 | 0.00 | 0.00 | 33 | 1012.7 |
| 20260503184230 | 17 | 32 | 3.2 | 8.0 | 0.00 | 0.00 | 0.00 | 31 | 1012.6 |
| 20260503183731 | 18 | 27 | 1.6 | 12.9 | 0.00 | 0.00 | 0.00 | 30 | 1012.7 |
| 20260503183231 | 18 | 196 | 1.6 | 12.9 | 0.00 | 0.00 | 0.00 | 31 | 1012.8 |
| 20260503182734 | 17 | 179 | 1.6 | 9.7 | 0.00 | 0.00 | 0.00 | 31 | 1012.8 |
| 20260503182228 | 17 | 63 | 3.2 | 9.7 | 0.00 | 0.00 | 0.00 | 30 | 1013.0 |
| 20260503181730 | 17 | 355 | 3.2 | 9.7 | 0.00 | 0.00 | 0.00 | 31 | 1013.0 |
| 20260503181229 | 17 | 158 | 1.6 | 9.7 | 0.00 | 0.00 | 0.00 | 33 | 1013.0 |
| 20260503180730 | 17 | 207 | 3.2 | 9.7 | 0.00 | 0.00 | 0.00 | 31 | 1013.1 |
| 20260503180230 | 17 | 28 | 3.2 | 9.7 | 0.00 | 0.00 | 0.00 | 31 | 1013.1 |
| 20260503175728 | 17 | 203 | 1.6 | 9.7 | 0.00 | 0.00 | 0.00 | 31 | 1013.2 |
| 20260503175228 | 17 | 108 | 1.6 | 8.0 | 0.00 | 0.00 | 0.00 | 32 | 1013.1 |
| 20260503174722 | 17 | 171 | 1.6 | 8.0 | 0.00 | 0.00 | 0.00 | 31 | 1013.1 |
| 20260503174220 | 17 | 232 | 1.6 | 11.3 | 0.00 | 0.00 | 0.00 | 34 | 1013.2 |
| 20260503173721 | 17 | 32 | 3.2 | 11.3 | 0.00 | 0.00 | 0.00 | 33 | 1013.0 |
| 20260503173450 | 17 | 167 | 3.2 | 8.0 | 0.00 | 0.00 | 0.00 | 33 | 1013.2 |
| 20260503172719 | 17 | 38 | 1.6 | 6.4 | 0.00 | 0.00 | 0.00 | 34 | 1013.3 |
| 20260503172218 | 17 | 52 | 1.6 | 8.0 | 0.00 | 0.00 | 0.00 | 33 | 1013.3 |
| 20260503171720 | 17 | 39 | 1.6 | 9.7 | 0.00 | 0.00 | 0.00 | 34 | 1013.5 |
| 20260503171218 | 16 | 30 | 3.2 | 11.3 | 0.00 | 0.00 | 0.00 | 34 | 1013.4 |
| 20260503170720 | 16 | 205 | 1.6 | 11.3 | 0.00 | 0.00 | 0.00 | 36 | 1013.5 |
| 20260503170220 | 16 | 206 | 1.6 | 11.3 | 0.00 | 0.00 | 0.00 | 33 | 1013.6 |
| 20260503150704 | 12 | 165 | 1.6 | 9.7 | 0.00 | 0.00 | 0.00 | 42 | 1014.4 |
| 20260503150205 | 11 | 87 | 1.6 | 9.7 | 0.00 | 0.00 | 0.00 | 41 | 1014.3 |
| 20260503140201 | 10 | 101 | 1.6 | 9.7 | 0.00 | 0.00 | 0.00 | 44 | 1014.3 |
| 20260503131323 | 8 | 30 | 3.2 | 9.7 | 0.00 | 0.00 | 0.00 | 57 | 1014.2 |
| 20260503130819 | 8 | 333 | 1.6 | 9.7 | 0.00 | 0.00 | 0.00 | 60 | 1014.2 |
| 20260503130311 | 8 | 90 | 1.6 | 11.3 | 0.00 | 0.00 | 0.00 | 65 | 1014.2 |
| 20260503110331 | 4 | 24 | 0.0 | 0.0 | 0.00 | 0.00 | 0.00 | 79 | 1013.2 |
| 20260503100219 | 5 | 24 | 0.0 | 0.0 | 0.00 | 0.00 | 0.00 | 72 | 1012.0 |
| 20260503090335 | 8 | 24 | 0.0 | 1.6 | 0.00 | 0.00 | 0.00 | 63 | 1011.3 |
| 20260503081525 | 8 | 39 | 0.0 | 1.6 | 0.00 | 0.00 | 0.00 | 62 | 1010.9 |
| 20260503081247 | 8 | 39 | 0.0 | 1.6 | 0.00 | 0.00 | 0.00 | 62 | 1010.9 |
| 20260503080522 | 8 | 38 | 0.0 | 1.6 | 0.00 | 0.00 | 0.00 | 61 | 1010.8 |
| 20260503072517 | 9 | 37 | 1.6 | 8.0 | 0.00 | 0.00 | 0.00 | 61 | 1010.4 |
| 20260503072019 | 9 | 30 | 0.0 | 4.8 | 0.00 | 0.00 | 0.00 | 62 | 1010.3 |
| 20260503071517 | 9 | 37 | 0.0 | 1.6 | 0.00 | 0.00 | 0.00 | 63 | 1010.2 |
| 20260503071018 | 10 | 37 | 0.0 | 1.6 | 0.00 | 0.00 | 0.00 | 62 | 1010.2 |
| 20260503070518 | 10 | 37 | 0.0 | 1.6 | 0.00 | 0.00 | 0.00 | 61 | 1010.2 |
| 20260503055018 | 10 | 42 | 0.0 | 1.6 | 0.00 | 0.00 | 0.00 | 66 | 1009.6 |
| 20260503054518 | 10 | 197 | 0.0 | 0.0 | 0.00 | 0.00 | 0.00 | 67 | 1009.6 |
| 20260503054017 | 10 | 197 | 0.0 | 0.0 | 0.00 | 0.00 | 0.00 | 67 | 1009.5 |
| 20260503053733 | 10 | 197 | 0.0 | 0.0 | 0.00 | 0.00 | 0.00 | 67 | 1009.6 |
| 20260503053016 | 10 | 197 | 0.0 | 0.0 | 0.00 | 0.00 | 0.00 | 68 | 1009.6 |
| 20260503052515 | 10 | 197 | 0.0 | 0.0 | 0.00 | 0.00 | 0.00 | 67 | 1009.6 |
| 20260503052013 | 10 | 197 | 0.0 | 0.0 | 0.00 | 0.00 | 0.00 | 68 | 1009.6 |
| 20260503051512 | 10 | 197 | 0.0 | 0.0 | 0.00 | 0.00 | 0.00 | 67 | 1009.6 |
| 20260503051232 | 10 | 197 | 0.0 | 0.0 | 0.00 | 0.00 | 0.00 | 69 | 1009.5 |
| 20260503050510 | 10 | 197 | 0.0 | 0.0 | 0.00 | 0.00 | 0.00 | 68 | 1009.5 |
| 20260503050011 | 10 | 197 | 0.0 | 0.0 | 0.00 | 0.00 | 0.00 | 68 | 1009.4 |
| 20260503045509 | 10 | 197 | 0.0 | 0.0 | 0.00 | 0.00 | 0.00 | 68 | 1009.5 |
| 20260503045010 | 10 | 197 | 0.0 | 0.0 | 0.00 | 0.00 | 0.00 | 68 | 1009.5 |
| 20260503044504 | 10 | 197 | 0.0 | 0.0 | 0.00 | 0.00 | 0.00 | 68 | 1009.4 |
| 20260503043958 | 10 | 197 | 0.0 | 1.6 | 0.00 | 0.00 | 0.00 | 68 | 1009.4 |
| 20260503043453 | 10 | 197 | 0.0 | 1.6 | 0.00 | 0.00 | 0.00 | 69 | 1009.4 |
| 20260503042946 | 10 | 197 | 0.0 | 1.6 | 0.00 | 0.00 | 0.00 | 71 | 1009.3 |
| 20260503042439 | 10 | 197 | 0.0 | 0.0 | 0.00 | 0.00 | 0.00 | 72 | 1009.4 |
| 20260503041933 | 10 | 197 | 0.0 | 0.0 | 0.00 | 0.00 | 0.00 | 72 | 1009.4 |
| 20260503041650 | 10 | 197 | 0.0 | 0.0 | 0.00 | 0.00 | 0.00 | 72 | 1009.4 |
| 20260503040922 | 10 | 197 | 0.0 | 0.0 | 0.00 | 0.00 | 0.00 | 72 | 1009.4 |
| 20260503040415 | 10 | 197 | 0.0 | 0.0 | 0.00 | 0.00 | 0.00 | 72 | 1009.4 |
| 20260503035912 | 10 | 197 | 0.0 | 0.0 | 0.00 | 0.00 | 0.00 | 72 | 1009.4 |
| 20260503035404 | 10 | 197 | 0.0 | 0.0 | 0.00 | 0.00 | 0.00 | 73 | 1009.4 |
| 20260503035337 | 10 | 197 | 0.0 | 0.0 | 0.00 | 0.00 | 0.00 | 73 | 1009.4 |
| 20260503034352 | 10 | 197 | 0.0 | 0.0 | 0.00 | 0.00 | 0.00 | 73 | 1009.3 |
| 20260503033847 | 10 | 197 | 0.0 | 0.0 | 0.00 | 0.00 | 0.00 | 73 | 1009.4 |
| 20260503033607 | 10 | 197 | 0.0 | 0.0 | 0.00 | 0.00 | 0.00 | 74 | 1009.4 |
| 20260503032835 | 10 | 197 | 0.0 | 0.0 | 0.00 | 0.00 | 0.00 | 73 | 1009.4 |
| 20260503032812 | 10 | 197 | 0.0 | 0.0 | 0.00 | 0.00 | 0.00 | 73 | 1009.4 |
| 20260503031832 | 10 | 197 | 0.0 | 0.0 | 0.00 | 0.00 | 0.00 | 73 | 1009.4 |
| 20260503031330 | 10 | 197 | 0.0 | 0.0 | 0.00 | 0.00 | 0.00 | 74 | 1009.4 |
| 20260503030828 | 10 | 197 | 0.0 | 0.0 | 0.00 | 0.00 | 0.00 | 73 | 1009.3 |
| 20260503030331 | 11 | 197 | 0.0 | 0.0 | 0.00 | 0.00 | 0.00 | 73 | 1009.3 |
| 20260503025825 | 11 | 197 | 0.0 | 0.0 | 0.00 | 0.00 | 0.00 | 72 | 1009.3 |
| 20260503025544 | 11 | 197 | 0.0 | 0.0 | 0.00 | 0.00 | 0.00 | 72 | 1009.3 |
| 20260503024823 | 11 | 197 | 0.0 | 0.0 | 0.00 | 0.00 | 0.00 | 73 | 1009.3 |
| 20260503024323 | 11 | 197 | 0.0 | 0.0 | 0.00 | 0.00 | 0.00 | 72 | 1009.3 |
| 20260503023819 | 11 | 197 | 0.0 | 0.0 | 0.00 | 0.00 | 0.00 | 72 | 1009.3 |
| 20260503023320 | 11 | 197 | 0.0 | 0.0 | 0.00 | 0.00 | 0.00 | 72 | 1009.3 |
| 20260503022821 | 11 | 197 | 0.0 | 0.0 | 0.00 | 0.00 | 0.00 | 73 | 1009.3 |
| 20260503022319 | 11 | 197 | 0.0 | 0.0 | 0.00 | 0.00 | 0.00 | 73 | 1009.2 |
| 20260503022042 | 11 | 197 | 0.0 | 0.0 | 0.00 | 0.00 | 0.00 | 73 | 1009.2 |
| 20260503021320 | 11 | 197 | 0.0 | 0.0 | 0.00 | 0.00 | 0.00 | 72 | 1009.2 |
| 20260503020815 | 11 | 197 | 0.0 | 0.0 | 0.00 | 0.00 | 0.00 | 71 | 1009.2 |
| 20260503020801 | 11 | 197 | 0.0 | 0.0 | 0.00 | 0.00 | 0.00 | 72 | 1009.1 |
| 20260503020039 | 11 | 197 | 0.0 | 0.0 | 0.00 | 0.00 | 0.00 | 72 | 1009.2 |
| 20260503015532 | 11 | 197 | 0.0 | 0.0 | 0.00 | 0.00 | 0.00 | 71 | 1009.1 |
| 20260503014815 | 11 | 197 | 0.0 | 0.0 | 0.00 | 0.00 | 0.00 | 71 | 1009.1 |
| 20260503014314 | 11 | 197 | 0.0 | 0.0 | 0.00 | 0.00 | 0.00 | 71 | 1009.1 |
| 20260503013815 | 11 | 197 | 0.0 | 0.0 | 0.00 | 0.00 | 0.00 | 70 | 1009.0 |
| 20260503013313 | 11 | 197 | 0.0 | 0.0 | 0.00 | 0.00 | 0.00 | 70 | 1009.0 |
| 20260503012816 | 11 | 197 | 0.0 | 0.0 | 0.00 | 0.00 | 0.00 | 69 | 1008.9 |
| 20260503012314 | 11 | 197 | 0.0 | 0.0 | 0.00 | 0.00 | 0.00 | 68 | 1008.9 |
| 20260503011814 | 11 | 197 | 0.0 | 0.0 | 0.00 | 0.00 | 0.00 | 68 | 1008.9 |
| 20260503011315 | 11 | 197 | 0.0 | 0.0 | 0.00 | 0.00 | 0.00 | 68 | 1008.8 |
| 20260503011044 | 11 | 197 | 0.0 | 0.0 | 0.00 | 0.00 | 0.00 | 67 | 1008.8 |
| 20260503010314 | 11 | 197 | 0.0 | 0.0 | 0.00 | 0.00 | 0.00 | 66 | 1008.8 |
| 20260503005815 | 11 | 197 | 0.0 | 0.0 | 0.00 | 0.00 | 0.00 | 66 | 1008.8 |
| 20260503005314 | 11 | 197 | 0.0 | 0.0 | 0.00 | 0.00 | 0.00 | 66 | 1008.7 |
| 20260503004815 | 11 | 197 | 0.0 | 0.0 | 0.00 | 0.00 | 0.00 | 66 | 1008.7 |
| 20260503004314 | 11 | 197 | 0.0 | 0.0 | 0.00 | 0.00 | 0.00 | 65 | 1008.5 |
| 20260503003813 | 11 | 197 | 0.0 | 0.0 | 0.00 | 0.00 | 0.00 | 64 | 1008.5 |
| 20260503003309 | 11 | 197 | 0.0 | 0.0 | 0.00 | 0.00 | 0.00 | 64 | 1008.4 |
| 20260503002810 | 11 | 197 | 0.0 | 0.0 | 0.00 | 0.00 | 0.00 | 63 | 1008.4 |
| 20260503002313 | 12 | 197 | 0.0 | 0.0 | 0.00 | 0.00 | 0.00 | 63 | 1008.3 |
| 20260503002030 | 12 | 197 | 0.0 | 0.0 | 0.00 | 0.00 | 0.00 | 62 | 1008.3 |
| 20260503001309 | 12 | 197 | 0.0 | 1.6 | 0.00 | 0.00 | 0.00 | 61 | 1008.3 |
| 20260503000807 | 12 | 197 | 0.0 | 1.6 | 0.00 | 0.00 | 0.00 | 60 | 1008.2 |
| 20260503000311 | 12 | 197 | 0.0 | 0.0 | 0.00 | 0.00 | 0.00 | 59 | 1008.1 |
| 20260502235807 | 12 | 198 | 0.0 | 0.0 | 0.00 | 0.00 | 0.00 | 58 | 1007.9 |
| 20260502235527 | 13 | 197 | 0.0 | 0.0 | 0.00 | 0.00 | 0.00 | 57 | 1007.8 |
| 20260502234804 | 13 | 198 | 0.0 | 0.0 | 0.00 | 0.00 | 0.00 | 56 | 1007.8 |
| 20260502234303 | 13 | 197 | 0.0 | 0.0 | 0.00 | 0.00 | 0.00 | 55 | 1007.7 |
| 20260502233805 | 13 | 197 | 0.0 | 0.0 | 0.00 | 0.00 | 0.00 | 54 | 1007.7 |
| 20260502233755 | 13 | 198 | 0.0 | 0.0 | 0.00 | 0.00 | 0.00 | 54 | 1007.6 |
| 20260502232802 | 13 | 198 | 0.0 | 1.6 | 0.00 | 0.00 | 0.00 | 54 | 1007.6 |
| 20260502232304 | 14 | 197 | 0.0 | 1.6 | 0.00 | 0.00 | 0.00 | 53 | 1007.5 |
| 20260502231802 | 14 | 214 | 0.0 | 0.0 | 0.00 | 0.00 | 0.00 | 53 | 1007.4 |
| 20260502231757 | 14 | 214 | 0.0 | 0.0 | 0.00 | 0.00 | 0.00 | 52 | 1007.4 |
| 20260502230755 | 14 | 214 | 0.0 | 0.0 | 0.00 | 0.00 | 0.00 | 51 | 1007.4 |
| 20260502230249 | 14 | 214 | 0.0 | 0.0 | 0.00 | 0.00 | 0.00 | 51 | 1007.3 |
| 20260502230225 | 14 | 214 | 0.0 | 0.0 | 0.00 | 0.00 | 0.00 | 50 | 1007.3 |
| 20260502225237 | 15 | 214 | 0.0 | 3.2 | 0.00 | 0.00 | 0.00 | 49 | 1007.3 |
| 20260502224953 | 15 | 214 | 0.0 | 3.2 | 0.00 | 0.00 | 0.00 | 48 | 1007.2 |
| 20260502224225 | 15 | 214 | 0.0 | 1.6 | 0.00 | 0.00 | 0.00 | 47 | 1007.1 |
| 20260502223719 | 15 | 214 | 0.0 | 1.6 | 0.00 | 0.00 | 0.00 | 46 | 1007.2 |
| 20260502223212 | 15 | 214 | 0.0 | 3.2 | 0.00 | 0.00 | 0.00 | 46 | 1007.2 |
| 20260502222707 | 15 | 214 | 0.0 | 3.2 | 0.00 | 0.00 | 0.00 | 48 | 1007.1 |
| 20260502222201 | 15 | 41 | 0.0 | 1.6 | 0.00 | 0.00 | 0.00 | 47 | 1007.1 |
| 20260502221654 | 15 | 46 | 0.0 | 3.2 | 0.00 | 0.00 | 0.00 | 47 | 1007.2 |
| 20260502221409 | 15 | 53 | 1.6 | 3.2 | 0.00 | 0.00 | 0.00 | 44 | 1007.3 |